CMS-01 1 47256U 20099A 21015.77410794 -.00000189 00000-0 00000+0 0 9990 2 47256 0.0449 258.9714 0000512 164.8587 51.0863 1.00446013 356 PSLV R/B 1 47257U 20099B 21015.47273357 .00001481 00000-0 25236-3 0 9997 2 47257 17.8250 166.3652 6079503 220.5425 73.0092 3.93359069 1176 ONEWEB-0102 1 47258U 20100A 21015.83334491 -.01373584 00000-0 -67555-1 0 9995 2 47258 87.4352 29.6482 0008772 162.8492 349.9807 15.21345463 4350 ONEWEB-0109 1 47259U 20100B 21015.83334491 -.01329041 00000-0 -12277+0 0 9994 2 47259 87.3580 29.7608 0008884 160.3710 35.3068 14.97878266 4320 ONEWEB-0110 1 47260U 20100C 21015.83334491 -.01384713 00000-0 -69339-1 0 9996 2 47260 87.4321 29.6447 0008333 160.9256 329.7251 15.20766168 4357 ONEWEB-0111 1 47261U 20100D 21015.83334491 -.01334602 00000-0 -12259+0 0 9996 2 47261 87.3689 29.7754 0008840 164.6671 57.8892 14.98109476 4325 ONEWEB-0114 1 47262U 20100E 21015.83334491 -.01347551 00000-0 -12556+0 0 9994 2 47262 87.3497 29.7669 0009798 152.9281 19.0334 14.97578687 4322 ONEWEB-0117 1 47263U 20100F 21015.58335648 -.01408611 00000-0 -11717+0 0 9995 2 47263 87.3774 29.8357 0010175 172.5989 307.7050 15.02047915 1758 ONEWEB-0118 1 47264U 20100G 21015.83334491 -.01393635 00000-0 -63456-1 0 9997 2 47264 87.4362 29.6189 0012645 161.4034 113.2503 15.23928925 4350 ONEWEB-0119 1 47265U 20100H 21015.83334491 -.01393086 00000-0 -71204-1 0 9998 2 47265 87.4221 29.6496 0012350 159.2393 201.4187 15.20023850 4350 ONEWEB-0120 1 47266U 20100J 21015.83334491 -.01379561 00000-0 -66037-1 0 9999 2 47266 87.4334 29.6381 0009254 164.9313 18.4187 15.22269817 4356 ONEWEB-0121 1 47267U 20100K 21015.83334491 -.01377755 00000-0 -11551+0 0 9992 2 47267 87.3852 29.7628 0011227 169.4976 261.4748 15.01663581 4338 ONEWEB-0122 1 47268U 20100L 21015.80626423 -.00362232 00000-0 -31269-1 0 9992 2 47268 87.3679 29.7916 0012541 162.2145 197.9530 14.99219451 4325 ONEWEB-0123 1 47269U 20100M 21015.83334491 -.01400187 00000-0 -73482-1 0 9993 2 47269 87.4305 29.6575 0007947 157.9632 284.3954 15.19203100 4350 ONEWEB-0124 1 47270U 20100N 21015.83334491 -.01416739 00000-0 -10565+0 0 9996 2 47270 87.4239 29.7285 0009864 149.1247 206.2975 15.06148877 4320 ONEWEB-0125 1 47271U 20100P 21014.57687681 -.00425952 00000-0 -21317-1 0 9994 2 47271 87.4026 30.1245 0007773 151.4319 208.7352 15.19427055 4148 ONEWEB-0126 1 47272U 20100Q 21015.83334491 -.01384893 00000-0 -67203-1 0 9996 2 47272 87.4257 29.6474 0010381 147.9019 295.5877 15.21804017 4346 ONEWEB-0127 1 47273U 20100R 21015.85405590 -.00434652 00000-0 -17936-1 0 9994 2 47273 87.4319 29.6309 0013328 155.2552 204.9337 15.25911875 4352 ONEWEB-0128 1 47274U 20100S 21015.56271914 -.00435996 00000-0 -15579-1 0 9997 2 47274 87.4135 29.6916 0012161 140.7493 219.4641 15.30640987 4314 ONEWEB-0129 1 47275U 20100T 21015.58335648 -.01487418 00000-0 -88183-1 0 9993 2 47275 87.4090 29.7819 0011261 170.0079 302.8598 15.14569369 1764 ONEWEB-0130 1 47276U 20100U 21015.83334491 -.01419470 00000-0 -78307-1 0 9997 2 47276 87.4383 29.6762 0009084 148.5679 212.3776 15.16982891 4343 ONEWEB-0131 1 47277U 20100V 21015.83334491 -.01398177 00000-0 -72409-1 0 9995 2 47277 87.4287 29.6496 0007965 155.0934 303.3119 15.19653715 4349 ONEWEB-0132 1 47278U 20100W 21015.81218944 -.00358151 00000-0 -22898-1 0 9992 2 47278 87.3931 29.7456 0009527 154.4138 205.7574 15.10431132 4323 ONEWEB-0133 1 47279U 20100X 21015.83334491 -.01368512 00000-0 -60318-1 0 9993 2 47279 87.4411 29.6233 0013107 160.3144 141.1573 15.24946238 4349 ONEWEB-0134 1 47280U 20100Y 21015.83334491 -.01394019 00000-0 -65704-1 0 9990 2 47280 87.4385 29.6330 0011904 165.1918 59.3654 15.22784198 4347 ONEWEB-0135 1 47281U 20100Z 21015.83334491 -.01396567 00000-0 -58607-1 0 9995 2 47281 87.4344 29.5975 0013307 143.5106 251.2484 15.26629477 4352 ONEWEB-0136 1 47282U 20100AA 21015.58335648 -.01472187 00000-0 -77570-1 0 9996 2 47282 87.4294 29.7416 0008705 150.1485 315.7846 15.18690514 1861 ONEWEB-0137 1 47283U 20100AB 21015.83334491 -.01357316 00000-0 -10581+0 0 9993 2 47283 87.3996 29.7517 0011824 150.2414 74.5245 15.04339222 4329 ONEWEB-0138 1 47284U 20100AC 21015.80464040 -.00401862 00000-0 -29187-1 0 9994 2 47284 87.3656 29.7275 0009293 153.6012 206.5700 15.05978293 4323 ONEWEB-0139 1 47285U 20100AD 21015.83334491 -.01376008 00000-0 -62008-1 0 9997 2 47285 87.4371 29.6197 0013433 146.2061 186.9660 15.24219236 4348 ONEWEB-0140 1 47286U 20100AE 21015.83334491 -.01404003 00000-0 -86971-1 0 9990 2 47286 87.3950 29.6976 0009727 173.0352 200.0242 15.12855853 4317 ONEWEB-0141 1 47287U 20100AF 21015.83334491 -.01413119 00000-0 -89965-1 0 9995 2 47287 87.3940 29.7054 0012414 155.7120 243.1377 15.11857574 4332 ONEWEB-0142 1 47288U 20100AG 21015.83334491 -.01370614 00000-0 -72995-1 0 9993 2 47288 87.4346 29.6699 0008333 153.1475 267.5121 15.18618817 4348 ONEWEB-0143 1 47289U 20100AH 21015.84820241 -.00396233 00000-0 -23785-1 0 9995 2 47289 87.3934 29.7154 0011103 161.3596 198.8053 15.12865410 4338 ONEWEB-0144 1 47290U 20100AJ 21015.83334491 -.01394906 00000-0 -94987-1 0 9991 2 47290 87.3831 29.7281 0009195 169.3268 29.1787 15.09436542 4313 ONEWEB-0145 1 47291U 20100AK 21015.83334491 -.01396450 00000-0 -60548-1 0 9994 2 47291 87.4291 29.6056 0013494 146.1934 204.8605 15.25547645 4332 ONEWEB-0146 1 47292U 20100AL 21015.85828120 -.00413006 00000-0 -21694-1 0 9999 2 47292 87.4202 29.6837 0011659 164.5452 195.6150 15.17644030 4331 ONEWEB-0147 1 47293U 20100AM 21015.83334491 -.01412196 00000-0 -96486-1 0 9992 2 47293 87.3892 29.6865 0010852 148.7842 284.8624 15.09331039 4327 2020-102A 1 47296U 20102A 21015.77199670 .00000976 00000-0 50193-4 0 9992 2 47296 97.4350 115.7615 0009396 99.6404 52.2967 15.18744652 3730 2020-102B 1 47297U 20102B 21016.13960311 .00000837 00000-0 42854-4 0 9993 2 47297 97.4334 116.1343 0007967 87.0503 321.9057 15.19282514 3774 2020-102C 1 47298U 20102C 21015.76805183 .00001851 00000-0 80408-4 0 9991 2 47298 97.3934 115.7960 0001669 126.2398 25.2923 15.23552840 3730 2020-102D 1 47299U 20102D 21015.82204574 .00000956 00000-0 47921-4 0 9994 2 47299 97.4354 115.8457 0006633 77.1685 74.8783 15.19722413 3733 2020-102E 1 47300U 20102E 21015.79993476 .00001679 00000-0 79951-4 0 9990 2 47300 97.4362 115.8547 0005659 47.9742 50.9705 15.20505605 3734 CZ-8 R/B 1 47301U 20102F 21015.52663643 .00002265 00000-0 54966-4 0 9993 2 47301 97.4401 116.1871 0105313 73.5308 287.7477 15.36545047 3731 YAOGAN-33 1 47302U 20103A 21015.82916267 .00000038 00000-0 17949-4 0 9997 2 47302 98.2706 265.6979 0001054 94.7446 265.3876 14.59118055 2804 WEINA 2 1 47303U 20103B 21014.98949394 .00005067 00000-0 10862-2 0 9993 2 47303 98.2720 264.9063 0001572 83.2437 276.9005 14.59105243 2688 CZ-4C R/B 1 47304U 20103C 21015.44833395 .00000114 00000-0 17473-4 0 9994 2 47304 98.3201 266.3808 0116274 344.0561 15.7006 14.89135821 2799 TURKSAT 5A 1 47306U 21001A 21013.53912193 .00008321 00000-0 14510+0 0 9998 2 47306 17.4768 331.8797 7982002 182.1165 169.1859 1.37548017 77 FALCON 9 R/B 1 47307U 21001B 21013.54272337 -.00000588 00000-0 15185-3 0 9990 2 47307 17.5806 331.8197 8053524 182.2406 168.2453 1.37534551 72